Simultaneous Nadir Overpasses (SNOs) Predictions

Prediction of SNOs between NPP and TERRA Satellite Orbit:

Table of predicted SNOs for the next 14.0 days since TLE Epoch: 7/5/2014
Index Date (NPP) Time (NPP) Lat,Lon (NPP) SZA (NPP ) Date (TERRA) Time (TERRA) Lat,Lon (TERRA) SZA (TERRA ) Distance(km) Time Diff (sec)
1 07/05/2014 14:15:49 69.01, -34.64 46.16 07/05/2014 14:16:50 69.00, -34.68 46.14 1.97 61
2 07/05/2014 15:06:31 -68.92, 132.80 133.94 07/05/2014 15:06:20 -68.89, 132.81 133.96 3.13 11
3 07/05/2014 15:57:05 68.25, -59.01 45.40 07/05/2014 15:55:55 68.33, -60.23 45.49 51.10 70
4 07/08/2014 06:32:49 69.00, 81.14 46.43 07/08/2014 06:33:16 69.00, 81.21 46.43 2.70 27
5 07/08/2014 07:23:30 -68.85,-111.34 133.72 07/08/2014 07:22:47 -68.84,-111.36 133.73 1.46 43
6 07/10/2014 21:59:03 -69.05, 29.52 133.19 07/10/2014 22:00:15 -69.05, 29.52 133.21 0.66 72
7 07/10/2014 22:49:47 68.94,-163.01 46.69 07/10/2014 22:49:42 68.93,-162.99 46.68 1.12 5
8 07/10/2014 23:40:27 -68.73, 4.59 133.51 07/10/2014 23:39:13 -68.77, 4.45 133.47 7.03 74
9 07/13/2014 14:16:02 -69.00, 145.37 132.88 07/13/2014 14:16:41 -69.02, 145.38 132.86 2.43 39
10 07/13/2014 15:06:46 68.88, -47.16 47.01 07/13/2014 15:06:08 68.89, -47.14 47.02 1.77 38
11 07/16/2014 05:42:23 69.26, 93.45 47.81 07/16/2014 05:43:35 69.18, 93.84 47.71 17.91 72
12 07/16/2014 06:33:01 -68.94, -98.79 132.52 07/16/2014 06:33:07 -68.97, -98.79 132.49 2.93 6
13 07/16/2014 07:23:45 68.83, 68.67
